Window Rock, AZ

10:07 PM MDT on March 29, 2017 (GMT -0600)
Window Rock

Weather History for KRQE - November, 2011

Change the Weather History Date:

Thursday, November 3, 2011

  Actual Average Record
Temperature  
Mean Temperature 40 °F -  
Max Temperature 62 °F 57 °F 73 °F (1949)
Min Temperature 17 °F 24 °F 5 °F (1956)
Degree Days  
Heating Degree Days 26    
Moisture  
Dew Point 15 °F    
Average Humidity 45    
Maximum Humidity 81    
Minimum Humidity 15    
Precipitation  
Precipitation 0.00 in - - ()
Sea Level Pressure  
Sea Level Pressure 30.17 in    
Wind  
Wind Speed 2 mph (SSW)    
Max Wind Speed 16 mph    
Max Gust Speed -    
Visibility 10 miles    
Events      
Averages and records for this station are not official NWS values.
T = Trace of Precipitation, MM = Missing Value Source: NWS Daily Summary

Daily Weather History Graph

Daily Weather History Graph

Search for Another Location

Airport or City:

Trip Planner

Search our weather history database for the weather conditions in past years. The results will help you decide how hot, cold, wet, or windy it might be!

Date:

Astronomy

Nov. 03, 2011 Rise Set
Actual Time 7:39 AM MDT 6:19 PM MDT
Civil Twilight 7:13 AM MDT 6:45 PM MDT
Nautical Twilight 6:43 AM MDT 7:15 PM MDT
Astronomical Twilight 6:13 AM MDT 7:45 PM MDT
Moon 2:32 PM MDT (11/3) 1:08 AM MDT (11/3)
Length of Visible Light 11h 32m
Length of Day
10h 39m
First Quarter, 61% of the Moon is Illuminated
Nov 3
First Quarter
Nov 10
Full
Nov 18
Last Quarter
Nov 24
New
Dec 2
First Quarter

Hourly Weather History & Observations

Time (MDT) Temp. Windchill Dew Point Humidity Pressure Visibility Wind Dir Wind Speed Gust Speed Precip Events Conditions
12:53 AM 24.1 °F - 14.0 °F 65% 30.35 in 10.0 mi Calm Calm - N/A   Clear
1:53 AM 23.0 °F - 15.1 °F 72% 30.34 in 10.0 mi Calm Calm - N/A   Clear
2:53 AM 23.0 °F - 15.1 °F 72% 30.31 in 10.0 mi Calm Calm - N/A   Clear
3:53 AM 19.9 °F - 12.9 °F 74% 30.32 in 10.0 mi Calm Calm - N/A   Clear
4:53 AM 19.0 °F - 12.9 °F 77% 30.31 in 10.0 mi Calm Calm - N/A   Clear
5:53 AM 19.0 °F - 12.9 °F 77% 30.32 in 10.0 mi Calm Calm - N/A   Clear
7:53 AM 17.1 °F - 12.0 °F 81% 30.36 in 10.0 mi Calm Calm - N/A   Clear
8:53 AM 21.9 °F - 16.0 °F 78% 30.37 in 10.0 mi Calm Calm - N/A   Clear
9:53 AM 32.0 °F - 18.0 °F 56% 30.31 in 10.0 mi Calm Calm - N/A   Clear
10:53 AM 39.0 °F 36.8 °F 17.1 °F 41% 30.26 in 10.0 mi SSW 3.5 mph - N/A   Clear
11:53 AM 46.9 °F - 17.1 °F 30% 30.21 in 10.0 mi West 3.5 mph - N/A   Clear
12:53 PM 53.1 °F - 12.9 °F 20% 30.17 in 10.0 mi Calm Calm - N/A   Clear
1:53 PM 57.0 °F - 12.0 °F 17% 30.11 in 10.0 mi South 8.1 mph - N/A   Clear
2:53 PM 59.0 °F - 14.0 °F 17% 30.07 in 10.0 mi South 5.8 mph - N/A   Clear
3:53 PM 62.1 °F - 14.0 °F 15% 30.04 in 10.0 mi SSW 16.1 mph - N/A   Clear
4:53 PM 59.0 °F - 15.1 °F 18% 30.05 in 10.0 mi SW 13.8 mph - N/A   Clear
5:53 PM 55.0 °F - 14.0 °F 20% 30.05 in 10.0 mi SW 8.1 mph - N/A   Clear
6:53 PM 50.0 °F - 14.0 °F 24% 30.09 in 10.0 mi SSW 3.5 mph - N/A   Clear
7:53 PM 39.0 °F - 16.0 °F 39% 30.14 in 10.0 mi Calm Calm - N/A   Clear
8:53 PM 32.0 °F - 16.0 °F 52% 30.14 in 10.0 mi Calm Calm - N/A   Clear
9:53 PM 41.0 °F - 15.1 °F 35% 30.05 in 10.0 mi Calm Calm - N/A   Clear
10:53 PM 37.9 °F - 17.1 °F 43% 30.04 in 10.0 mi Calm Calm - N/A   Clear
11:53 PM 41.0 °F 39.0 °F 16.0 °F 36% 29.98 in 10.0 mi ESE 3.5 mph - N/A   Clear